Other Surface Observations
Issued by NWS

Current Version | Previous Version | Text Only | Print | Product List | Glossary On
Versions: 1 2 3 4 5 6 7 8 9 10 11 12 13 14 15 16 17 18 19 20 21 22 23 24 25 26 27 28 29 30 31 32 33 34 35 36 37 38 39 40 41 42 43 44 45 46 47 48 49 50
000
SXUS52 KTAE 250218
OSOTAE
OSOTAE
North Florida/South Alabama/Southwest Georgia Weather Roundup
National Weather Service Tallahassee Florida
1000 PM EDT FRI APR 24 2015

Note: "fair" indicates few or no clouds below 12,000 feet with no
significant weather and/or obstructions to visibility.

!FLZ017-115-028-034-025-250300
...North Florida...

CITY           SKY/WX    TMP DP  RH WIND       PRES   REMARKS
TALLAHASSEE    CLOUDY    74  60  61 CALM      29.95R
APALACHICOLA   CLOUDY    77  65  66 S7        29.94F
PERRY          MOCLDY    70  64  82 CALM      29.97R
CROSS CITY       N/A     75  65  70 CALM      29.94F
JACKSONVILLE   CLOUDY    65  56  72 SE7       30.00F
$$

!FLZ112-006-005-002-011-250300
...Florida Panhandle...

CITY           SKY/WX    TMP DP  RH WIND       PRES   REMARKS
MARIANNA       CLOUDY    73  63  70 S6        29.94R
BONIFAY        FAIR      69  64  84 CALM      29.95S
PANAMA CITY NW FAIR      72  64  76 SE5       29.93S
TYNDALL AFB    CLOUDY    73  63  69 S9        29.96R
TYND DRONE APT FAIR      72  65  77 S8        29.95R
DE FUNIAK SPR  FAIR      69  63  81 S3        29.95R
EGLIN AFB      MOCLDY    73  67  81 SE9       29.92S
DESTIN         CLOUDY    75  68  78 SE8       29.92F
HURLBURT       CLOUDY    74  67  80 SE10      29.91S
CRESTVIEW      MOCLDY    69  63  81 E3        29.94S
PENSACOLA      CLOUDY    73  69  87 S9        29.90S
$$

!ALZ063-066-250300
...South Alabama...

CITY           SKY/WX    TMP DP  RH WIND       PRES   REMARKS
DOTHAN         MOCLDY    70  62  76 CALM      29.98R
OZARK CAIRNS   MOCLDY    72  61  68 S5        29.94S
FT RUCKER HELI PTCLDY    69  63  81 CALM      29.92S
RUCKER HELI 3  NOT AVBL
RUCKER HELI 2  FAIR      72  62  71 E3        29.93S
FLORALA APT    MOCLDY    69  62  78 S5        29.95R
ANDALUSIA      MOCLDY    75  62  64 CALM      29.94R
TROY           MOCLDY    69  63  81 CALM      29.94S
EUFALA         FAIR      67  62  84 CALM      29.94R
MOBILE         CLOUDY    73  69  87 SE10      29.91R
$$

!GAZ120>161-250300
...Southwest and South Central Georgia...

CITY           SKY/WX    TMP DP  RH WIND       PRES   REMARKS
THOMASVILLE    FAIR      68  64  88 CALM      29.96R
BAINBRIDGE     CLOUDY    73  66  78 S3        29.95S
MOODY AFB      MOCLDY    70  57  64 SE7       29.96R
VALDOSTA       MOCLDY    72  58  61 E5        29.97R
MOULTRIE       PTCLDY    70  63  78 CALM      29.97R
BLAKELY        MOCLDY    70  63  78 CALM      29.95S
ALBANY         CLOUDY    71  60  68 CALM      29.97R
TIFTON         FAIR      72  58  60 CALM      29.97
FITZGERALD     MOCLDY    74  51  44 SE5       29.99R
CORDELE        MOCLDY    72  57  59 CALM      29.97R
AMERICUS       CLOUDY    68  55  64 CALM      29.99R
HOMERVILLE     FAIR      70  55  60 SE7       29.98R
$$

!GMZ750-755-770-775-250300
...Coastal and Buoy Obs...

STATION/POSITION TIME  TEMP    WIND        PRES    VSBY  WAVE
                       AIR SEA DIR/SP/G                  HT/PER
                 (UTC) (F)     (DEG/KT/KT) (MB)    (MI)  (FT/S)
KEATON BEACH     0200   78     240/  6/  6 1014.6R
CEDAR KEY        0200   78     110/  7/  8 1013.9F
C TOWER          0200   73     170/ 10/ 10 1013.4F
APALACHICOLA BUO 0150   77 76  170/  8/  8 1014.1R         2/ 6
PANAMA CITY BUOY 0150   76 76  140/ 10/ 12 1013.7R         2/ 7
MOBILE BUOY      0150   77 77  120/ 14/ 16 1013.4R         3/ 5
ORANGE BCH AL BU 0150   74 73  120/ 12/ 14 1011.4F         2/ 6
$$



USA.gov is the U.S. government's official web portal to all federal, state and local government web resources and services.